Regional Weather Roundup
Issued by NWS San Angelo, TX

Home | Current Version | Previous Version | Text Only | Print | Product List | Glossary On
Versions: 1 2 3 4 5 6 7 8 9 10 11 12 13 14 15 16 17 18 19 20 21 22 23 24 25 26 27 28 29 30 31 32 33 34 35 36 37 38 39 40 41 42 43 44 45 46 47 48 49 50
000
ASUS44 KSJT 071610
RWRSJT
WEST CENTRAL TEXAS REGIONAL WEATHER ROUNDUP
NATIONAL WEATHER SERVICE SAN ANGELO TX
1000 AM CST WED DEC 07 2016

NOTE: "FAIR" INDICATES FEW OR NO CLOUDS BELOW 12,000 FEET WITH NO
SIGNIFICANT WEATHER AND/OR OBSTRUCTIONS TO VISIBILITY.

TXZ049-054-064>066-071>073-076>078-098-099-113-114-127-128-139-140-
154-155-168>170-071700
...LOCATIONS ACROSS WEST CENTRAL TEXAS...

CITY           SKY/WX    TMP DP  RH WIND       PRES   REMARKS
SAN ANGELO     CLOUDY    45  41  86 S9        30.05R
ABILENE        CLOUDY    39  39 100 SE9       30.08R FOG     WCI  33
DYESS AFB      CLOUDY    40  37  89 SE8       30.06R FOG     WCI  34
JUNCTION       CLOUDY    45  41  86 CALM      30.07R
SWEETWATER     CLOUDY    40  40 100 S8        30.06S VSB 1/2 WCI  35
BROWNWOOD      CLOUDY    41  41 100 SE6       30.11R FOG     WCI  37
COLEMAN        CLOUDY    42  41  99 S6        30.09R FOG     WCI  38
SONORA         CLOUDY    43  43 100 SW6       30.10R WCI  39
OZONA          FOG       43  43 100 S9G17     30.07S VSB 3/4 WCI  37
BRADY          NOT AVBL
$$

TEXAS PANHANDLE/OKLAHOMA PANHANDLE

CITY           SKY/WX    TMP DP  RH WIND       PRES   REMARKS
AMARILLO       CLOUDY    29  24  82 CALM      30.05R
BORGER         CLOUDY    25  20  81 NE5       30.09R WCI  19
CANADIAN       CLOUDY    30  25  80 CALM      30.13R
DALHART        SUNNY     27  10  49 N17       30.05R WCI  14
DUMAS          CLOUDY    24  18  78 N7        30.06R WCI  16
GUYMON         NOT AVBL
HEREFORD       CLOUDY    32  32  99 W7        30.01R WCI  26
PAMPA          CLOUDY    29  22  76 SE9       30.07R WCI  21
PERRYTON       CLOUDY    31  22  69 SE8       30.10R WCI  23
$$

SOUTHERN PANHANDLE/SOUTH PLAINS/ROLLING PLAINS

CITY           SKY/WX    TMP DP  RH WIND       PRES   REMARKS
LUBBOCK        CLOUDY    35  32  88 S7        30.01R WCI  29
SNYDER         FOG       37  37  99 S6        30.05R VSB 1/2 WCI  32
CHILDRESS      CLOUDY    34  25  69 E7        30.10R WCI  28
SEMINOLE       CLOUDY    37  37 100 CALM      30.01R FOG
$$

PERMIAN BASIN

CITY           SKY/WX    TMP DP  RH WIND       PRES   REMARKS
MIDLAND        CLOUDY    43  39  86 SW8       30.00R WCI  38
ODESSA         CLOUDY    44  38  79 SW8       30.01R WCI  39
WINK           CLOUDY    38  38 100 SE5       29.99R FOG     WCI  34
$$

FAR WEST/SOUTHWEST MOUNTAINS/TRANS PECOS

CITY           SKY/WX    TMP DP  RH WIND       PRES   REMARKS
ALPINE         PTSUNNY   60  33  36 SW16      30.09R
DRYDEN           N/A     43  41  93 S5        30.03R
EL PASO        CLOUDY    54  32  43 W7        30.02R
FORT STOCKTON  PTSUNNY   46  39  76 E3        30.00R
GUADALUPE PASS NOT AVBL
MARFA          NOT AVBL
PECOS          CLOUDY    37  36  99 CALM      30.00R FOG
$$

DALLAS/FORT WORTH METROPLEX

CITY           SKY/WX    TMP DP  RH WIND       PRES   REMARKS
DFW AIRPORT    CLOUDY    46  37  71 CALM      30.12R
FTW MEACHAM    CLOUDY    45  36  70 CALM      30.12R
DAL-EXECUTIVE  MOSUNNY   47  41  80 E3        30.11R
GRAND PRAIRIE  SUNNY     46  37  71 CALM      30.13R
ADDISON        SUNNY     46  39  76 CALM      30.12R
MESQUITE       PTSUNNY   46  39  76 CALM      30.13R
LANCASTER      PTSUNNY   53  46  78 CALM      30.13R
$$

NORTH CENTRAL TEXAS

CITY           SKY/WX    TMP DP  RH WIND       PRES   REMARKS
SHRMAN/DENISON PTSUNNY   45  38  76 CALM      30.13S
GAINESVILLE    MOSUNNY   40  33  73 CALM      30.15R
BRIDGEPORT     CLOUDY    41  36  83 CALM      30.13R
DENTON         CLOUDY    43  36  76 CALM      30.12R
WAXAHACHIE     PTSUNNY   48  44  87 CALM      30.12R
GRANBURY       CLOUDY    47  41  79 SE3       30.13R
$$

WESTERN NORTH TEXAS

CITY           SKY/WX    TMP DP  RH WIND       PRES   REMARKS
WICHITA FALLS  CLOUDY    37  29  72 NE6       30.12R WCI  32
VERNON         SUNNY     38  25  61 E7        30.13R WCI  32
BRECKENRIDGE   CLOUDY    42  39  89 SE5       30.08F WCI  39
COMANCHE       CLOUDY    40  40 100 CALM      30.10R FOG
$$

CENTRAL AND SOUTH CENTRAL TEXAS

CITY           SKY/WX    TMP DP  RH WIND       PRES   REMARKS
AUSTIN/BERGSTM CLOUDY    47  45  93 NE7       30.12R FOG
WACO           PTSUNNY   50  43  77 SE7       30.12R
HILLSBORO      PTSUNNY   51  44  77 SE6       30.11R
TEMPLE         CLOUDY    49  45  86 SE5       30.13R
KILLEEN-GRAY   CLOUDY    46  45  96 CALM      30.11R
FORT HOOD      CLOUDY    46  46 100 SE5       30.09R
GEORGETOWN     CLOUDY    48  45  87 CALM      30.13R
LAGO VISTA     CLOUDY    47  46  96 E5        30.12R FOG
SAN MARCOS     CLOUDY    46  45  93 NE7       30.12R
NEW BRAUNFELS  CLOUDY    48  45  89 NE9       30.08S FOG
RANDOLPH AFB   CLOUDY    48  48 100 NE6       30.08R
SAN ANTONIO    CLOUDY    49  44  83 NE6       30.09R
STINSON        CLOUDY    51  45  79 E8        30.07R
PLEASANTON     NOT AVBL
LA GRANGE      CLOUDY    49  49  99 CALM      30.09F FOG
GIDDINGS       CLOUDY    46  46  99 E3        30.16R FOG
$$

EAST TEXAS

CITY           SKY/WX    TMP DP  RH WIND       PRES   REMARKS
PARIS          CLOUDY    45  39  81 E7        30.15R
CLARKSVILLE    NOT AVBL
TYLER          CLOUDY    51  49  92 S6        30.12R
LONGVIEW       CLOUDY    52  50  93 SE7       30.12R
PALESTINE      PTSUNNY   52  48  88 E3        30.13R
NACOGDOCHES    CLOUDY    52  46  82 E5        30.10S
$$

TEXAS HILL COUNTRY AND EDWARDS PLATEAU

CITY           SKY/WX    TMP DP  RH WIND       PRES   REMARKS
LLANO          CLOUDY   N/A N/A N/A CALM      30.13R
HORSESHOE BAY  CLOUDY    49  44  84 SE3       30.11R
KERRVILLE      CLOUDY    44  43  96 E3        30.08S FOG
FREDERICKSBRG  CLOUDY    44  43  96 CALM      30.09R FOG
ROCKSPRINGS    NOT AVBL
HONDO          CLOUDY    51  46  83 NE7       30.09R
UVALDE         CLOUDY    47  44  88 CALM      30.10R
DEL RIO        CLOUDY    49  46  90 SE5       30.08R
$$

SOUTHEAST TEXAS

CITY           SKY/WX    TMP DP  RH WIND       PRES   REMARKS
COLLEGE STN    CLOUDY    51  47  86 SE6       30.13R
CALDWELL       NOT AVBL
CROCKETT       CLOUDY    52  48  87 NE5       30.15R
BRENHAM        CLOUDY    52  50  94 CALM      30.13R
HUNTSVILLE     CLOUDY    52  46  80 E3        30.12R
CONROE         CLOUDY    52  48  86 SE5       30.12R
HOUSTON BUSH   FOG       50  48  93 VRB5      30.12R VSB 1/8
HOUSTON HOBBY  CLOUDY    52  51  97 NE7       30.11R FOG
PERLAND        CLOUDY    54  51  90 E6        30.12R FOG
WHARTON        CLOUDY    55  49  81 CALM      30.12R
$$

THE UPPER TEXAS COAST

CITY           SKY/WX    TMP DP  RH WIND       PRES   REMARKS
ORANGE         CLOUDY   N/A N/A N/A E6        30.13R HAZE
PORT ARTHUR    CLOUDY    58  53  84 NE3       30.10R
GALVESTON      CLOUDY    60  56  86 NE7       30.10R FOG
ANGLETON       CLOUDY    57  54  89 NE8       30.10R
BAY CITY       CLOUDY    53  53 100 CALM      30.11R FOG
$$

TEXAS COASTAL BEND, RIO GRANDE PLAINS DEEP SOUTH TEXAS

CITY           SKY/WX    TMP DP  RH WIND       PRES   REMARKS
VICTORIA       CLOUDY    57  50  77 NE9       30.10R HAZE
BEEVILLE       CLOUDY    51  51 100 NE9       30.08R
ROCKPORT         N/A    N/A N/A N/A MISG      30.07R
PORT ARANSAS   CLOUDY    62  60  93 NE14      30.05R
PORT LAVACA    FOG       51  51 100 N8        30.09R VSB 3/4
CORPUS CHRISTI CLOUDY    57  55  93 N9        30.06R FOG
KINGSVILLE NAS CLOUDY    55  54  96 N12       30.02R FOG
COTULLA        CLOUDY    53  46  77 E9        30.08R
LAREDO         CLOUDY    54  49  83 E3        30.08R
BROWNSVILLE    PTSUNNY   72  69  90 CALM      30.02R
PORT ISABEL    PTSUNNY   72  71  97 CALM      30.01R
HEBBRONVILLE   CLOUDY    53  49  87 NE5       30.07R
MCALLEN        CLOUDY    65  57  75 N5        30.03S
WESLACO        CLOUDY    64  60  87 N3        30.01F
FALFURRIAS     CLOUDY    56  52  85 N6        30.05S
EDINBURG       CLOUDY    66  57  74 N3        30.03S
$$




USA.gov is the U.S. government's official web portal to all federal, state and local government web resources and services.